Weather History for Spartanburg, SC

Change the Weather History Date:

Monday, January 6, 2014

  Actual Average (KGSP) Record (KGSP)
Temperature  
Mean Temperature 30 °F 42 °F  
Max Temperature 44 °F 52 °F 71 °F (1955)
Min Temperature 15 °F 32 °F 5 °F (1924)
Degree Days  
Heating Degree Days 36 23  
Month to date heating degree days 138  
Since 1 July heating degree days 1341  
Cooling Degree Days 0 0  
Month to date cooling degree days 0  
Year to date cooling degree days 0  
Moisture  
Dew Point 18 °F    
Average Humidity 56    
Maximum Humidity 100    
Minimum Humidity 26    
Precipitation  
Precipitation 0.01 in 0.12 in 3.94 in (1936)
Month to date precipitation 0.73  
Year to date precipitation 0.73  
Snow  
Snow 0.00 in 0.00 in 1.30 in (1996)
Month to date snowfall 0.3  
Since 1 July snowfall 0.8  
Snow Depth -    
Sea Level Pressure  
Sea Level Pressure 29.97 in    
Wind  
Wind Speed 10 mph (WNW)    
Max Wind Speed 23 mph    
Max Gust Speed 34 mph    
Visibility 10 miles    
Events Rain    
T = Trace of Precipitation, MM = Missing Value Source: NWS Daily Summary

Daily Weather History Graph

Daily Weather History Graph

Search for Another Location

Airport:

Trip Planner

Search our weather history database for the weather conditions in past years. The results will help you decide how hot, cold, wet, or windy it might be!

Date:

Astronomy

Jan. 06, 2014 Rise Set
Actual Time 7:36 AM EST 5:31 PM EST
Civil Twilight 7:08 AM EST 5:59 PM EST
Nautical Twilight 6:36 AM EST 6:30 PM EST
Astronomical Twilight 6:06 AM EST 7:01 PM EST
Moon 11:05 AM EST (1/6) 11:47 PM EST (1/6)
Length of Visible Light 10h 51m
Length of Day
9h 55m
Waxing Crescent, 34% of the Moon is Illuminated
Jan 6
Waxing Crescent
Jan 7
First Quarter
Jan 15
Full
Jan 24
Last Quarter
Jan 30
New

Hourly Weather History & Observations

Time (EST) Temp. Windchill Dew Point Humidity Pressure Visibility Wind Dir Wind Speed Gust Speed Precip Events Conditions
12:15 AM 41.0 °F - 41.0 °F 100% 29.76 in 4.0 mi Calm Calm - N/A   Overcast
4:35 AM 44.6 °F 40.7 °F 44.6 °F 100% 29.70 in 10.0 mi WSW 6.9 mph - N/A   Overcast
4:55 AM 44.6 °F 40.7 °F 44.6 °F 100% 29.70 in 10.0 mi WSW 6.9 mph - N/A   Overcast
5:15 AM 44.6 °F 40.7 °F 44.6 °F 100% 29.69 in 10.0 mi WSW 6.9 mph - N/A   Overcast
5:35 AM 44.6 °F 41.4 °F 44.6 °F 100% 29.70 in 10.0 mi West 5.8 mph - N/A   Drizzle
5:55 AM 44.6 °F 40.7 °F 44.6 °F 100% 29.70 in 10.0 mi WSW 6.9 mph - 0.01 in Rain Rain
6:15 AM 44.6 °F 40.2 °F 44.6 °F 100% 29.71 in 10.0 mi WSW 8.1 mph - N/A   Overcast
6:35 AM 44.6 °F 40.2 °F 44.6 °F 100% 29.72 in 10.0 mi WSW 8.1 mph - N/A   Overcast
6:55 AM 42.8 °F 38.0 °F 42.8 °F 100% 29.73 in 10.0 mi West 8.1 mph - N/A   Scattered Clouds
7:15 AM 42.8 °F 38.6 °F 42.8 °F 100% 29.75 in 10.0 mi West 6.9 mph - N/A   Mostly Cloudy
7:35 AM 41.0 °F 33.9 °F 41.0 °F 100% 29.77 in 10.0 mi WNW 12.7 mph 16.1 mph N/A   Overcast
7:55 AM 39.2 °F 32.5 °F 35.6 °F 87% 29.79 in 10.0 mi NW 10.4 mph 17.3 mph N/A   Overcast
8:15 AM 37.4 °F 29.3 °F 32.0 °F 81% 29.80 in 10.0 mi NW 12.7 mph - N/A   Overcast
8:35 AM 37.4 °F 29.8 °F 30.2 °F 75% 29.82 in 10.0 mi NW 11.5 mph 17.3 mph N/A   Overcast
8:55 AM 37.4 °F 29.8 °F 28.4 °F 70% 29.85 in 10.0 mi NW 11.5 mph 20.7 mph N/A   Overcast
9:15 AM 35.6 °F 28.0 °F 28.4 °F 75% 29.86 in 10.0 mi NW 10.4 mph 17.3 mph N/A   Overcast
9:35 AM 35.6 °F 27.1 °F 24.8 °F 65% 29.88 in 10.0 mi NW 12.7 mph 26.5 mph N/A   Overcast
9:55 AM 35.6 °F 26.2 °F 23.0 °F 60% 29.90 in 10.0 mi NW 15.0 mph 25.3 mph N/A   Overcast
10:15 AM 35.6 °F 25.5 °F 21.2 °F 56% 29.91 in 10.0 mi NNW 17.3 mph 26.5 mph N/A   Overcast
10:35 AM 35.6 °F 25.5 °F 21.2 °F 56% 29.92 in 10.0 mi NW 17.3 mph 25.3 mph N/A   Overcast
10:55 AM 35.6 °F 25.2 °F 19.4 °F 52% 29.93 in 10.0 mi NW 18.4 mph 27.6 mph N/A   Overcast
11:15 AM 35.6 °F 25.9 °F 19.4 °F 52% 29.94 in 10.0 mi NNW 16.1 mph 26.5 mph N/A   Overcast
11:35 AM 37.4 °F 29.8 °F 21.2 °F 52% 29.95 in 10.0 mi NNW 11.5 mph - N/A   Scattered Clouds
11:55 AM 37.4 °F 28.5 °F 21.2 °F 52% 29.94 in 10.0 mi NW 15.0 mph - N/A   Clear
12:15 PM 37.4 °F 28.9 °F 21.2 °F 52% 29.93 in 10.0 mi WNW 13.8 mph 18.4 mph N/A   Scattered Clouds
12:35 PM 39.2 °F 32.0 °F 19.4 °F 45% 29.93 in 10.0 mi NW 11.5 mph 18.4 mph N/A   Scattered Clouds
12:55 PM 41.0 °F 34.7 °F 19.4 °F 42% 29.91 in 10.0 mi NNW 10.4 mph - N/A   Clear
1:15 PM 39.2 °F 33.6 °F 19.4 °F 45% 29.91 in 10.0 mi NW 8.1 mph - N/A   Clear
1:35 PM 39.2 °F 35.0 °F 19.4 °F 45% 29.91 in 10.0 mi North 5.8 mph - N/A   Mostly Cloudy
1:55 PM 41.0 °F 35.8 °F 21.2 °F 45% 29.91 in 10.0 mi NNW 8.1 mph - N/A   Mostly Cloudy
2:15 PM 42.8 °F 37.5 °F 19.4 °F 39% 29.91 in 10.0 mi WNW 9.2 mph - N/A   Scattered Clouds
2:35 PM 42.8 °F 34.5 °F 19.4 °F 39% 29.91 in 10.0 mi West 18.4 mph 25.3 mph N/A   Clear
2:55 PM 41.0 °F 32.5 °F 15.8 °F 36% 29.92 in 10.0 mi WSW 17.3 mph 34.5 mph N/A   Clear
3:15 PM 41.0 °F 31.1 °F 12.2 °F 31% 29.93 in 10.0 mi West 23.0 mph 29.9 mph N/A   Clear
3:35 PM 39.2 °F 29.3 °F 6.8 °F 26% 29.95 in 10.0 mi West 20.7 mph 33.4 mph N/A   Clear
3:55 PM 37.4 °F 26.6 °F 10.4 °F 33% 29.95 in 10.0 mi West 21.9 mph 29.9 mph N/A   Clear
4:15 PM 37.4 °F 26.6 °F 8.6 °F 30% 29.97 in 10.0 mi West 21.9 mph 28.8 mph N/A   Clear
4:35 PM 37.4 °F 27.5 °F 10.4 °F 33% 29.97 in 10.0 mi West 18.4 mph 28.8 mph N/A   Clear
4:55 PM 35.6 °F 25.9 °F 8.6 °F 33% 29.98 in 10.0 mi WNW 16.1 mph 25.3 mph N/A   Clear
5:15 PM 33.8 °F 22.2 °F 10.4 °F 38% 30.00 in 10.0 mi WSW 20.7 mph 26.5 mph N/A   Clear
5:35 PM 32.0 °F 19.5 °F 8.6 °F 38% 30.02 in 10.0 mi West 21.9 mph 26.5 mph N/A   Clear
5:55 PM 30.2 °F 20.2 °F 12.2 °F 47% 30.05 in 10.0 mi NNW 12.7 mph 17.3 mph N/A   Clear
6:15 PM 28.4 °F 17.5 °F 10.4 °F 47% 30.06 in 10.0 mi NW 13.8 mph 19.6 mph N/A   Clear
6:35 PM 28.4 °F 17.5 °F 8.6 °F 43% 30.08 in 10.0 mi NW 13.8 mph 17.3 mph N/A   Clear
6:55 PM 26.6 °F 14.3 °F 3.2 °F 37% 30.10 in 10.0 mi NNW 16.1 mph 23.0 mph N/A   Clear
7:15 PM 24.8 °F 11.5 °F 1.4 °F 36% 30.13 in 10.0 mi NNW 17.3 mph 24.2 mph N/A   Clear
7:35 PM 23.0 °F 9.6 °F 1.4 °F 39% 30.14 in 10.0 mi NNW 16.1 mph 19.6 mph N/A   Clear
7:55 PM 21.2 °F 8.3 °F -0.4 °F 39% 30.17 in 10.0 mi NNW 13.8 mph 21.9 mph N/A   Clear
8:15 PM 21.2 °F 7.8 °F -0.4 °F 39% 30.19 in 10.0 mi NNW 15.0 mph 19.6 mph N/A   Clear
8:35 PM 21.2 °F 10.1 °F -2.2 °F 36% 30.21 in 10.0 mi NNW 10.4 mph 17.3 mph N/A   Clear
8:55 PM 19.4 °F 7.9 °F -0.4 °F 42% 30.22 in 10.0 mi NW 10.4 mph - N/A   Clear
9:15 PM 19.4 °F 7.9 °F -2.2 °F 39% 30.23 in 10.0 mi NNW 10.4 mph - N/A   Clear
9:35 PM 19.4 °F 8.6 °F -4.0 °F 36% 30.23 in 10.0 mi NNW 9.2 mph - N/A   Clear
9:55 PM 17.6 °F 5.7 °F -2.2 °F 42% 30.25 in 10.0 mi NNW 10.4 mph - N/A   Clear
10:15 PM 17.6 °F 3.2 °F -4.0 °F 38% 30.25 in 10.0 mi NW 15.0 mph 18.4 mph N/A   Clear
10:35 PM 17.6 °F 7.3 °F -4.0 °F 38% 30.26 in 10.0 mi NNW 8.1 mph 18.4 mph N/A   Clear
10:55 PM 17.6 °F 5.7 °F -4.0 °F 38% 30.26 in 10.0 mi NW 10.4 mph - N/A   Clear
11:15 PM 17.6 °F 5.7 °F -4.0 °F 38% 30.26 in 10.0 mi NNW 10.4 mph 16.1 mph N/A   Clear
11:35 PM 15.8 °F 3.4 °F -4.0 °F 41% 30.25 in 10.0 mi NNW 10.4 mph - N/A   Clear
11:55 PM 15.8 °F 5.1 °F -4.0 °F 41% 30.26 in 10.0 mi NNW 8.1 mph - N/A   Clear